Fort Indiantown Gap, PA

5:33 AM EST on January 19, 2018 (GMT -0500)
Muir Army Air Field

Weather History for KMUI - January, 2013

Change the Weather History Date:

Friday, January 4, 2013

  Actual Average Record
Temperature  
Mean Temperature 34 °F -  
Max Temperature 37 °F 36 °F 62 °F (2000)
Min Temperature 31 °F 26 °F -3 °F (2014)
Degree Days  
Heating Degree Days 31    
Moisture  
Dew Point 20 °F    
Average Humidity 58    
Maximum Humidity 69    
Minimum Humidity 48    
Precipitation  
Precipitation 0.00 in - - ()
Sea Level Pressure  
Sea Level Pressure 30.11 in    
Wind  
Wind Speed 12 mph (WSW)    
Max Wind Speed 18 mph    
Max Gust Speed 25 mph    
Visibility 10 miles    
Events Snow    
Averages and records for this station are not official NWS values.
T = Trace of Precipitation, MM = Missing Value Source: NWS Daily Summary

Daily Weather History Graph

Daily Weather History Graph

Search for Another Location

Airport or City:

Trip Planner

Search our weather history database for the weather conditions in past years. The results will help you decide how hot, cold, wet, or windy it might be!

Date:

Astronomy

Jan. 04, 2013 Rise Set
Actual Time 7:29 AM EST 4:53 PM EST
Civil Twilight 6:59 AM EST 5:23 PM EST
Nautical Twilight 6:25 AM EST 5:57 PM EST
Astronomical Twilight 5:52 AM EST 6:31 PM EST
Moon No Moon Rise 11:09 AM EST (1/4)
Length of Visible Light 10h 24m
Length of Day
9h 23m
Waning Gibbous, 55% of the Moon is Illuminated
Jan 4
Waning Gibbous
Jan 4
Last Quarter
Jan 11
New
Jan 18
First Quarter
Jan 26
Full

Hourly Weather History & Observations

Time (EST) Temp. Windchill Dew Point Humidity Pressure Visibility Wind Dir Wind Speed Gust Speed Precip Events Conditions
12:55 AM 34.0 °F 25.5 °F 18.7 °F 54% 30.12 in 10.0 mi West 11.5 mph - N/A   Overcast
1:55 AM 33.6 °F 26.8 °F 18.7 °F 54% 30.12 in 10.0 mi West 8.1 mph 19.6 mph N/A   Overcast
2:55 AM 33.1 °F 23.0 °F 19.4 °F 57% 30.14 in 10.0 mi West 15.0 mph 20.7 mph N/A   Overcast
3:55 AM 32.5 °F 24.2 °F 20.1 °F 60% 30.13 in 10.0 mi WSW 10.4 mph - N/A   Overcast
4:55 AM 32.0 °F 24.2 °F 20.3 °F 62% 30.13 in 10.0 mi WSW 9.2 mph - N/A   Overcast
5:55 AM 31.6 °F 21.6 °F 20.5 °F 63% 30.14 in 10.0 mi WSW 13.8 mph - N/A   Overcast
6:55 AM 31.5 °F 21.8 °F 21.2 °F 66% 30.14 in 10.0 mi WSW 12.7 mph - N/A   Overcast
7:55 AM 31.5 °F 21.8 °F 19.6 °F 62% 30.13 in 10.0 mi WSW 12.7 mph - N/A   Overcast
8:55 AM 31.5 °F 22.9 °F 20.3 °F 63% 30.15 in 10.0 mi WSW 10.4 mph - N/A   Overcast
9:01 AM 32.0 °F 22.1 °F 21.2 °F 64% 30.15 in 10.0 mi SW 13.8 mph - N/A   Overcast
9:03 AM 32.0 °F 21.6 °F 21.2 °F 64% 30.15 in 10.0 mi WSW 15.0 mph - N/A   Overcast
9:04 AM 32.0 °F 22.1 °F 21.2 °F 64% 30.15 in 10.0 mi WSW 13.8 mph - N/A Snow Light Snow
9:24 AM 32.0 °F 24.8 °F 21.2 °F 64% 30.15 in 10.0 mi WSW 8.1 mph - N/A Snow Light Snow
9:30 AM 32.0 °F 25.6 °F 21.2 °F 64% 30.16 in 10.0 mi WSW 6.9 mph - N/A Snow Light Snow
9:55 AM 31.8 °F 23.3 °F 22.6 °F 69% 30.15 in 10.0 mi WSW 10.4 mph - 0.00 in Snow Light Snow
10:15 AM 32.0 °F 23.6 °F 21.2 °F 64% 30.15 in 10.0 mi West 10.4 mph - N/A   Mostly Cloudy
10:28 AM 32.0 °F 23.0 °F 21.2 °F 64% 30.15 in 10.0 mi West 11.5 mph 20.7 mph N/A   Mostly Cloudy
10:30 AM 32.0 °F 25.6 °F 21.2 °F 64% 30.14 in 10.0 mi WSW 6.9 mph 20.7 mph N/A   Mostly Cloudy
10:55 AM 33.3 °F 25.1 °F 20.7 °F 60% 30.14 in 10.0 mi WNW 10.4 mph 21.9 mph 0.00 in   Overcast
11:55 AM 34.7 °F 24.7 °F 19.4 °F 54% 30.11 in 10.0 mi West 16.1 mph 21.9 mph N/A   Overcast
12:55 PM 36.1 °F 28.7 °F 20.1 °F 52% 30.07 in 10.0 mi West 10.4 mph 24.2 mph N/A   Partly Cloudy
1:55 PM 37.4 °F 28.2 °F 19.9 °F 49% 30.04 in 10.0 mi West 16.1 mph 25.3 mph N/A   Clear
2:55 PM 37.9 °F 28.2 °F 19.8 °F 48% 30.04 in 10.0 mi WSW 18.4 mph 24.2 mph N/A   Clear
3:55 PM 37.6 °F 28.8 °F 19.4 °F 48% 30.05 in 10.0 mi West 15.0 mph - N/A   Clear
4:55 PM 36.0 °F 26.0 °F 19.6 °F 51% 30.05 in 10.0 mi WSW 17.3 mph - N/A   Clear
5:55 PM 35.2 °F 27.1 °F 19.2 °F 52% 30.06 in 10.0 mi West 11.5 mph - N/A   Clear
6:55 PM 34.7 °F 25.5 °F 18.9 °F 52% 30.07 in 10.0 mi West 13.8 mph 19.6 mph N/A   Clear
7:55 PM 35.1 °F 25.9 °F 18.0 °F 50% 30.07 in 10.0 mi West 13.8 mph 24.2 mph N/A   Clear
8:55 PM 32.7 °F 24.5 °F 17.8 °F 54% 30.07 in 10.0 mi SW 10.4 mph - N/A   Clear
9:55 PM 34.5 °F 27.3 °F 17.1 °F 49% 30.07 in 10.0 mi SW 9.2 mph 20.7 mph N/A   Clear
10:55 PM 33.4 °F 24.8 °F 17.1 °F 51% 30.09 in 10.0 mi SW 11.5 mph - N/A   Clear
11:55 PM 33.3 °F 25.1 °F 17.2 °F 52% 30.10 in 10.0 mi WSW 10.4 mph - N/A   Clear